Date String (YYYY-MM-DD hh:mm:ss) UTC,Instrument flags,absolute air pressure of the measurement (hPa),sample flow rate (lpm),inlet stack bypass flow (lpm),air temperature of the measurement (°C),ambient temperature measured by the external sensor (°C),aerosol sample conditioner tube jacket temperature (°C),OPC LED temperature (°C),internal box temperature (°C),relative humidity of the measurement (%),span deviation,mass concentration of particles derived from Lorenz-Mie calculation of OPC scattering (μg/m³),mass concentration of particles derived from Lorenz-Mie calculation of OPC scattering (μg/m³),mass concentration of particles derived from Lorenz-Mie calculation of OPC scattering (μg/m³)
DateTimeUTC,F1_M11,P_M11,Q1_M11,Q2_M11,T1_M11,T2_M11,T3_M11,T4_M11,T5_M11,U1_M11,ZSPAN_M11,X0_M11,X2_M11,X1_M11
2024-04-30 18:00:00,SystemResetWarning,0822.7,5.00,000.00,024.0,023.3,000.0,032.3,025.7,014.4,0000.0,0010.21,0003.68,0001.81
2024-04-30 18:01:00,SystemResetWarning,0822.6,5.00,000.00,024.0,023.3,000.0,032.3,025.7,015.0,0000.0,0009.45,0003.70,0001.81
2024-04-30 18:02:00,SystemResetWarning,0822.6,5.01,000.00,024.0,023.3,000.0,032.3,025.7,014.5,0000.0,0009.19,0003.71,0001.80
2024-04-30 18:03:00,SystemResetWarning,0822.6,4.99,000.00,024.0,023.3,000.0,032.3,025.7,014.2,0000.0,0009.21,0003.77,0001.82
2024-04-30 18:04:00,SystemResetWarning,0822.6,4.99,000.00,024.0,023.3,000.0,032.3,025.7,014.3,0000.0,0009.30,0003.80,0001.84
2024-04-30 18:05:00,SystemResetWarning,0822.6,4.99,000.00,024.1,023.3,000.0,032.3,025.7,014.5,0000.0,0009.37,0003.85,0001.85
2024-04-30 18:06:00,SystemResetWarning,0822.7,5.00,000.00,024.1,023.3,000.0,032.4,025.7,014.5,0000.0,0009.50,0003.86,0001.87
2024-04-30 18:07:00,SystemResetWarning,0822.7,5.00,000.00,024.1,023.3,000.0,032.4,025.8,014.9,0000.0,0009.80,0003.88,0001.90
2024-04-30 18:08:00,SystemResetWarning,0822.6,5.01,000.00,024.1,023.3,000.0,032.4,025.8,014.8,0000.0,0009.97,0003.88,0001.91
2024-04-30 18:09:00,SystemResetWarning,0822.7,5.00,000.00,024.1,023.4,000.0,032.4,025.9,014.9,0000.0,0010.03,0003.91,0001.91
2024-04-30 18:10:00,SystemResetWarning,0822.7,5.00,000.00,024.1,023.4,000.0,032.4,025.9,015.3,0000.0,0009.93,0003.92,0001.91
2024-04-30 18:11:00,SystemResetWarning,0822.9,4.99,000.00,024.1,023.4,000.0,032.4,025.9,015.2,0000.0,0010.54,0003.92,0001.93
2024-04-30 18:12:00,SystemResetWarning,0822.7,4.99,000.00,024.1,023.4,000.0,032.4,025.9,014.7,0000.0,0010.89,0003.95,0001.94
2024-04-30 18:13:00,SystemResetWarning,0822.7,5.00,000.00,024.1,023.4,000.0,032.4,025.9,014.9,0000.0,0011.22,0003.94,0001.95
2024-04-30 18:14:00,SystemResetWarning,0822.8,5.01,000.00,024.1,023.4,000.0,032.4,025.9,014.9,0000.0,0011.07,0003.87,0001.94
2024-04-30 18:15:00,SystemResetWarning,0822.7,5.00,000.00,024.1,023.4,000.0,032.4,025.9,015.4,0000.0,0010.94,0003.82,0001.94
2024-04-30 18:16:00,SystemResetWarning,0822.8,5.00,000.00,024.1,023.4,000.0,032.5,025.9,015.3,0000.0,0011.09,0003.82,0001.96
2024-04-30 18:17:00,SystemResetWarning,0822.7,4.99,000.00,024.2,023.4,000.0,032.5,025.9,014.9,0000.0,0011.44,0003.80,0001.96
2024-04-30 18:18:00,SystemResetWarning,0822.5,4.99,000.00,024.2,023.4,000.0,032.5,025.9,014.7,0000.0,0011.06,0003.76,0001.94
2024-04-30 18:19:00,SystemResetWarning,0822.7,5.00,000.00,024.2,023.5,000.0,032.5,025.9,014.9,0000.0,0010.84,0003.73,0001.92
2024-04-30 18:20:00,SystemResetWarning,0822.4,5.00,000.00,024.2,023.5,000.0,032.5,026.0,014.9,0000.0,0010.66,0003.71,0001.93
2024-04-30 18:21:00,SystemResetWarning,0822.7,5.01,000.00,024.2,023.5,000.0,032.5,025.9,014.5,0000.0,0010.66,0003.72,0001.96
2024-04-30 18:22:00,SystemResetWarning,0822.8,5.00,000.00,024.2,023.5,000.0,032.5,026.0,014.6,0000.0,0010.46,0003.71,0001.97
2024-04-30 18:23:00,SystemResetWarning,0822.5,5.00,000.00,024.2,023.5,000.0,032.5,026.0,015.0,0000.0,0010.40,0003.72,0001.98
2024-04-30 18:24:00,SystemResetWarning,0822.5,5.00,000.00,024.2,023.5,000.0,032.5,026.0,014.8,0000.0,0010.13,0003.73,0002.00
2024-04-30 18:25:00,SystemResetWarning,0822.4,4.99,000.00,024.2,023.5,000.0,032.5,026.0,014.5,0000.0,0010.11,0003.77,0002.01
2024-04-30 18:26:00,SystemResetWarning,0822.3,5.00,000.00,024.2,023.5,000.0,032.5,026.0,014.4,0000.0,0010.07,0003.76,0002.01
2024-04-30 18:27:00,SystemResetWarning,0822.2,5.00,000.00,024.2,023.5,000.0,032.6,026.0,014.3,0000.0,0010.01,0003.75,0002.02
2024-04-30 18:28:00,SystemResetWarning,0822.1,5.00,000.00,024.2,023.5,000.0,032.6,026.0,013.9,0000.0,0009.41,0003.77,0002.05
2024-04-30 18:29:00,SystemResetWarning,0822.1,5.01,000.00,024.3,023.5,000.0,032.6,026.0,014.4,0000.0,0010.43,0003.88,0002.09
2024-04-30 18:30:00,SystemResetWarning,0822.2,5.00,000.00,024.3,023.5,000.0,032.6,026.0,013.5,0000.0,0011.09,0003.94,0002.13
2024-04-30 18:31:00,SystemResetWarning,0822.2,5.00,000.00,024.3,023.5,000.0,032.6,026.0,014.1,0000.0,0011.46,0003.97,0002.15
2024-04-30 18:32:00,SystemResetWarning,0822.0,5.00,000.00,024.3,023.5,000.0,032.6,026.0,014.0,0000.0,0012.26,0003.98,0002.14
2024-04-30 18:33:00,SystemResetWarning,0822.1,5.00,000.00,024.3,023.5,000.0,032.6,026.0,014.0,0000.0,0012.37,0004.01,0002.15
2024-04-30 18:34:00,SystemResetWarning,0822.2,5.00,000.00,024.3,023.6,000.0,032.6,026.0,014.1,0000.0,0011.75,0003.97,0002.16
2024-04-30 18:35:00,SystemResetWarning,0822.1,5.00,000.00,024.3,023.6,000.0,032.6,026.0,014.1,0000.0,0011.89,0003.98,0002.18
2024-04-30 18:36:00,SystemResetWarning,0822.3,5.00,000.00,024.3,023.6,000.0,032.6,026.0,014.1,0000.0,0011.75,0003.98,0002.19
2024-04-30 18:37:00,SystemResetWarning,0822.2,4.99,000.00,024.3,023.6,000.0,032.6,026.1,014.1,0000.0,0011.66,0003.98,0002.20
2024-04-30 18:38:00,SystemResetWarning,0821.9,5.00,000.00,024.3,023.6,000.0,032.6,026.1,013.7,0000.0,0011.66,0004.00,0002.22
2024-04-30 18:39:00,SystemResetWarning,0822.0,5.00,000.00,024.3,023.6,000.0,032.6,026.0,013.8,0000.0,0011.61,0003.98,0002.20
2024-04-30 18:40:00,SystemResetWarning,0822.1,5.01,000.00,024.3,023.6,000.0,032.6,026.0,013.9,0000.0,0011.02,0003.89,0002.16
2024-04-30 18:41:00,SystemResetWarning,0822.2,5.00,000.00,024.3,023.6,000.0,032.6,026.1,014.2,0000.0,0010.79,0003.88,0002.15
2024-04-30 18:42:00,SystemResetWarning,0822.2,5.01,000.00,024.3,023.6,000.0,032.6,026.1,014.1,0000.0,0010.78,0003.84,0002.13
2024-04-30 18:43:00,SystemResetWarning,0822.0,5.00,000.00,024.3,023.6,000.0,032.6,026.1,014.4,0000.0,0010.10,0003.85,0002.13
2024-04-30 18:44:00,SystemResetWarning,0822.0,5.00,000.00,024.3,023.6,000.0,032.7,026.1,014.3,0000.0,0010.56,0003.85,0002.13
2024-04-30 18:45:00,SystemResetWarning,0822.1,5.00,000.00,024.4,023.6,000.0,032.7,026.1,014.5,0000.0,0010.96,0003.88,0002.13
2024-04-30 18:46:00,SystemResetWarning,0822.1,5.01,000.00,024.4,023.6,000.0,032.7,026.1,014.6,0000.0,0010.75,0003.86,0002.10
2024-04-30 18:47:00,SystemResetWarning,0822.0,5.00,000.00,024.4,023.6,000.0,032.7,026.2,014.5,0000.0,0010.73,0003.86,0002.10
2024-04-30 18:48:00,SystemResetWarning,0821.8,5.01,000.00,024.4,023.6,000.0,032.7,026.2,013.9,0000.0,0011.62,0003.90,0002.09
2024-04-30 18:49:00,SystemResetWarning,0821.8,5.00,000.00,024.4,023.6,000.0,032.7,026.2,014.3,0000.0,0012.06,0003.94,0002.08
2024-04-30 18:50:00,SystemResetWarning,0821.8,5.00,000.00,024.4,023.6,000.0,032.7,026.1,013.7,0000.0,0012.50,0004.01,0002.09
2024-04-30 18:51:00,SystemResetWarning,0821.9,5.00,000.00,024.4,023.6,000.0,032.7,026.1,013.3,0000.0,0012.45,0004.07,0002.13
2024-04-30 18:52:00,SystemResetWarning,0822.0,5.00,000.00,024.4,023.7,000.0,032.7,026.1,013.8,0000.0,0012.27,0004.09,0002.15
2024-04-30 18:53:00,SystemResetWarning,0822.0,4.99,000.00,024.4,023.7,000.0,032.7,026.2,014.4,0000.0,0011.77,0004.14,0002.14
2024-04-30 18:54:00,SystemResetWarning,0821.7,4.99,000.00,024.4,023.7,000.0,032.7,026.2,014.0,0000.0,0011.90,0004.15,0002.14
2024-04-30 18:55:00,SystemResetWarning,0821.8,5.01,000.00,024.4,023.7,000.0,032.8,026.2,013.6,0000.0,0011.34,0004.12,0002.13
2024-04-30 18:56:00,SystemResetWarning,0821.8,5.01,000.00,024.4,023.7,000.0,032.8,026.2,013.7,0000.0,0011.63,0004.11,0002.13
2024-04-30 18:57:00,SystemResetWarning,0821.8,5.01,000.00,024.4,023.7,000.0,032.8,026.2,014.0,0000.0,0011.80,0004.10,0002.12
2024-04-30 18:58:00,SystemResetWarning,0822.0,5.01,000.00,024.4,023.7,000.0,032.8,026.2,013.8,0000.0,0012.56,0004.11,0002.12
2024-04-30 18:59:00,SystemResetWarning,0821.8,4.99,000.00,024.5,023.7,000.0,032.8,026.2,014.0,0000.0,0011.98,0004.09,0002.12
